| time (UTC) | temp F | wind direction | speed MPH | gust MPH | rain 1hr in | rain 24hr in | rain mn in | humidity % | barometer mb |
| 20260502194301 | 58 | 320 | 0.0 | 0.0 | 0.00 | 0.00 | 0.00 | 63 | 1007.9 |
| 20260502193759 | 59 | 320 | 0.0 | 2.0 | 0.00 | 0.00 | 0.00 | 62 | 1007.8 |
| 20260502193241 | 59 | 320 | 0.0 | 3.0 | 0.00 | 0.00 | 0.00 | 61 | 1007.8 |
| 20260502192741 | 59 | 336 | 1.0 | 3.0 | 0.00 | 0.00 | 0.00 | 61 | 1007.8 |
| 20260502192239 | 60 | 258 | 0.0 | 2.0 | 0.00 | 0.00 | 0.00 | 60 | 1007.7 |
| 20260502192006 | 60 | 259 | 0.0 | 2.0 | 0.00 | 0.00 | 0.00 | 59 | 1007.7 |
| 20260502191233 | 60 | 275 | 0.0 | 2.0 | 0.00 | 0.00 | 0.00 | 59 | 1007.6 |
| 20260502190949 | 61 | 221 | 0.0 | 1.0 | 0.00 | 0.00 | 0.00 | 58 | 1007.6 |
| 20260502190231 | 61 | 221 | 0.0 | 1.0 | 0.00 | 0.00 | 0.00 | 57 | 1007.6 |
| 20260502185732 | 62 | 220 | 1.0 | 4.0 | 0.00 | 0.00 | 0.00 | 57 | 1007.5 |
| 20260502185232 | 62 | 240 | 1.0 | 4.0 | 0.00 | 0.00 | 0.00 | 56 | 1007.5 |
| 20260502184733 | 62 | 235 | 1.0 | 3.0 | 0.00 | 0.00 | 0.00 | 56 | 1007.5 |
| 20260502184231 | 63 | 200 | 1.0 | 3.0 | 0.00 | 0.00 | 0.00 | 55 | 1007.5 |
| 20260502183733 | 63 | 210 | 1.0 | 3.0 | 0.00 | 0.00 | 0.00 | 55 | 1007.5 |
| 20260502183230 | 63 | 237 | 0.0 | 3.0 | 0.00 | 0.00 | 0.00 | 54 | 1007.5 |
| 20260502182731 | 64 | 203 | 1.0 | 3.0 | 0.00 | 0.00 | 0.00 | 53 | 1007.5 |
| 20260502182231 | 64 | 189 | 2.0 | 3.0 | 0.00 | 0.00 | 0.00 | 52 | 1007.5 |
| 20260502181730 | 65 | 204 | 1.0 | 4.0 | 0.00 | 0.00 | 0.00 | 52 | 1007.4 |
| 20260502181233 | 65 | 207 | 1.0 | 4.0 | 0.00 | 0.00 | 0.00 | 52 | 1007.4 |
| 20260502180733 | 66 | 202 | 2.0 | 4.0 | 0.00 | 0.00 | 0.00 | 50 | 1007.3 |
| 20260502180457 | 66 | 196 | 2.0 | 3.0 | 0.00 | 0.00 | 0.00 | 49 | 1007.3 |
| 20260502170232 | 72 | 204 | 2.0 | 5.0 | 0.00 | 0.00 | 0.00 | 41 | 1007.4 |
| 20260502164232 | 74 | 274 | 11.0 | 26.0 | 0.00 | 0.00 | 0.00 | 34 | 1007.4 |
| 20260502163731 | 74 | 331 | 8.0 | 13.0 | 0.00 | 0.00 | 0.00 | 34 | 1007.5 |
| 20260502163231 | 74 | 303 | 6.0 | 15.0 | 0.00 | 0.00 | 0.00 | 34 | 1007.5 |
| 20260502162952 | 74 | 275 | 5.0 | 13.0 | 0.00 | 0.00 | 0.00 | 35 | 1007.6 |
| 20260502162450 | 73 | 230 | 7.0 | 13.0 | 0.00 | 0.00 | 0.00 | 37 | 1007.7 |
| 20260502161731 | 73 | 271 | 3.0 | 6.0 | 0.00 | 0.00 | 0.00 | 41 | 1007.8 |
| 20260502161231 | 73 | 230 | 4.0 | 9.0 | 0.00 | 0.00 | 0.00 | 41 | 1007.7 |
| 20260502160730 | 73 | 204 | 3.0 | 9.0 | 0.00 | 0.00 | 0.00 | 39 | 1007.9 |
| 20260502160455 | 73 | 234 | 2.0 | 9.0 | 0.00 | 0.00 | 0.00 | 40 | 1007.9 |
| 20260502151728 | 73 | 238 | 5.0 | 12.0 | 0.00 | 0.00 | 0.00 | 39 | 1008.6 |
| 20260502151228 | 72 | 240 | 4.0 | 12.0 | 0.00 | 0.00 | 0.00 | 39 | 1008.6 |
| 20260502150728 | 73 | 238 | 6.0 | 10.0 | 0.00 | 0.00 | 0.00 | 39 | 1008.8 |
| 20260502150227 | 73 | 234 | 4.0 | 9.0 | 0.00 | 0.00 | 0.00 | 39 | 1008.8 |
| 20260502130727 | 73 | 244 | 5.0 | 13.0 | 0.00 | 0.00 | 0.00 | 40 | 1010.1 |
| 20260502130225 | 72 | 252 | 8.0 | 13.0 | 0.00 | 0.00 | 0.00 | 41 | 1010.2 |
| 20260502123724 | 74 | 176 | 9.0 | 18.0 | 0.00 | 0.00 | 0.00 | 36 | 1010.5 |
| 20260502123225 | 74 | 224 | 8.0 | 18.0 | 0.00 | 0.00 | 0.00 | 36 | 1010.5 |
| 20260502122724 | 73 | 138 | 6.0 | 15.0 | 0.00 | 0.00 | 0.00 | 36 | 1010.6 |
| 20260502122224 | 73 | 281 | 10.0 | 17.0 | 0.00 | 0.00 | 0.00 | 36 | 1010.8 |
| 20260502121724 | 73 | 283 | 11.0 | 17.0 | 0.00 | 0.00 | 0.00 | 36 | 1010.7 |
| 20260502121224 | 73 | 295 | 6.0 | 21.0 | 0.00 | 0.00 | 0.00 | 35 | 1010.8 |
| 20260502120724 | 73 | 320 | 7.0 | 21.0 | 0.00 | 0.00 | 0.00 | 35 | 1010.9 |
| 20260502120223 | 73 | 326 | 9.0 | 15.0 | 0.00 | 0.00 | 0.00 | 35 | 1010.8 |
| 20260502115725 | 72 | 247 | 9.0 | 26.0 | 0.00 | 0.00 | 0.00 | 36 | 1011.0 |
| 20260502115223 | 72 | 303 | 11.0 | 26.0 | 0.00 | 0.00 | 0.00 | 36 | 1011.1 |
| 20260502114722 | 72 | 323 | 14.0 | 19.0 | 0.00 | 0.00 | 0.00 | 35 | 1011.2 |
| 20260502114440 | 72 | 283 | 8.0 | 15.0 | 0.00 | 0.00 | 0.00 | 36 | 1011.3 |
| 20260502113942 | 72 | 286 | 7.0 | 15.0 | 0.00 | 0.00 | 0.00 | 36 | 1011.3 |
| 20260502113446 | 72 | 258 | 10.0 | 16.0 | 0.00 | 0.00 | 0.00 | 36 | 1011.3 |
| 20260502112722 | 72 | 276 | 6.0 | 19.0 | 0.00 | 0.00 | 0.00 | 36 | 1011.4 |
| 20260502112448 | 71 | 262 | 12.0 | 20.0 | 0.00 | 0.00 | 0.00 | 37 | 1011.5 |
| 20260502111722 | 71 | 269 | 14.0 | 20.0 | 0.00 | 0.00 | 0.00 | 36 | 1011.5 |
| 20260502111221 | 71 | 276 | 11.0 | 18.0 | 0.00 | 0.00 | 0.00 | 37 | 1011.6 |
| 20260502110722 | 71 | 279 | 11.0 | 18.0 | 0.00 | 0.00 | 0.00 | 36 | 1011.7 |
| 20260502110222 | 71 | 285 | 13.0 | 18.0 | 0.00 | 0.00 | 0.00 | 37 | 1011.8 |
| 20260502105722 | 71 | 268 | 11.0 | 17.0 | 0.00 | 0.00 | 0.00 | 36 | 1011.8 |
| 20260502105222 | 72 | 244 | 7.0 | 18.0 | 0.00 | 0.00 | 0.00 | 37 | 1011.9 |
| 20260502104721 | 71 | 285 | 10.0 | 18.0 | 0.00 | 0.00 | 0.00 | 37 | 1012.0 |
| 20260502104221 | 70 | 285 | 11.0 | 16.0 | 0.00 | 0.00 | 0.00 | 38 | 1012.0 |
| 20260502103721 | 70 | 258 | 10.0 | 16.0 | 0.00 | 0.00 | 0.00 | 37 | 1012.0 |
| 20260502103448 | 70 | 313 | 9.0 | 20.0 | 0.00 | 0.00 | 0.00 | 38 | 1012.1 |
| 20260502102720 | 69 | 310 | 13.0 | 20.0 | 0.00 | 0.00 | 0.00 | 37 | 1012.2 |
| 20260502102220 | 70 | 289 | 10.0 | 16.0 | 0.00 | 0.00 | 0.00 | 37 | 1012.2 |
| 20260502101720 | 69 | 279 | 10.0 | 17.0 | 0.00 | 0.00 | 0.00 | 37 | 1012.2 |
| 20260502101439 | 69 | 296 | 5.0 | 17.0 | 0.00 | 0.00 | 0.00 | 37 | 1012.3 |
| 20260502100720 | 69 | 283 | 8.0 | 21.0 | 0.00 | 0.00 | 0.00 | 38 | 1012.3 |
| 20260502100220 | 69 | 275 | 7.0 | 21.0 | 0.00 | 0.00 | 0.00 | 38 | 1012.5 |
| 20260502091219 | 67 | 234 | 6.0 | 17.0 | 0.00 | 0.00 | 0.00 | 37 | 1012.9 |
| 20260502090719 | 68 | 290 | 12.0 | 16.0 | 0.00 | 0.00 | 0.00 | 37 | 1013.0 |
| 20260502090219 | 67 | 257 | 8.0 | 14.0 | 0.00 | 0.00 | 0.00 | 36 | 1013.1 |
| 20260502071216 | 63 | 283 | 10.0 | 18.0 | 0.00 | 0.00 | 0.00 | 41 | 1013.8 |
| 20260502070716 | 63 | 296 | 7.0 | 18.0 | 0.00 | 0.00 | 0.00 | 41 | 1013.8 |
| 20260502070216 | 62 | 316 | 7.0 | 15.0 | 0.00 | 0.00 | 0.00 | 41 | 1013.7 |
| 20260502065935 | 62 | 279 | 6.0 | 18.0 | 0.00 | 0.00 | 0.00 | 41 | 1013.8 |
| 20260502065216 | 62 | 303 | 9.0 | 18.0 | 0.00 | 0.00 | 0.00 | 41 | 1013.8 |
| 20260502064936 | 62 | 274 | 7.0 | 24.0 | 0.00 | 0.00 | 0.00 | 41 | 1013.9 |
| 20260502064216 | 61 | 274 | 13.0 | 24.0 | 0.00 | 0.00 | 0.00 | 41 | 1013.9 |
| 20260502063715 | 61 | 237 | 7.0 | 17.0 | 0.00 | 0.00 | 0.00 | 41 | 1014.0 |
| 20260502063216 | 61 | 276 | 8.0 | 19.0 | 0.00 | 0.00 | 0.00 | 42 | 1014.0 |
| 20260502062716 | 61 | 276 | 9.0 | 19.0 | 0.00 | 0.00 | 0.00 | 42 | 1014.0 |
| 20260502062656 | 61 | 268 | 14.0 | 19.0 | 0.00 | 0.00 | 0.00 | 42 | 1014.2 |
| 20260502061934 | 60 | 251 | 8.0 | 18.0 | 0.00 | 0.00 | 0.00 | 43 | 1014.1 |
| 20260502061216 | 60 | 300 | 12.0 | 17.0 | 0.00 | 0.00 | 0.00 | 44 | 1014.1 |
| 20260502060715 | 60 | 289 | 7.0 | 23.0 | 0.00 | 0.00 | 0.00 | 44 | 1014.2 |
| 20260502060215 | 59 | 303 | 9.0 | 23.0 | 0.00 | 0.00 | 0.00 | 45 | 1014.1 |
| 20260502055715 | 59 | 298 | 9.0 | 17.0 | 0.00 | 0.00 | 0.00 | 45 | 1014.1 |
| 20260502055215 | 59 | 298 | 11.0 | 17.0 | 0.00 | 0.00 | 0.00 | 46 | 1014.3 |
| 20260502054715 | 58 | 254 | 10.0 | 14.0 | 0.00 | 0.00 | 0.00 | 47 | 1014.3 |
| 20260502054435 | 58 | 272 | 7.0 | 15.0 | 0.00 | 0.00 | 0.00 | 47 | 1014.3 |
| 20260502053715 | 58 | 261 | 8.0 | 17.0 | 0.00 | 0.00 | 0.00 | 47 | 1014.4 |
| 20260502053214 | 58 | 293 | 12.0 | 17.0 | 0.00 | 0.00 | 0.00 | 48 | 1014.3 |
| 20260502052715 | 57 | 298 | 6.0 | 13.0 | 0.00 | 0.00 | 0.00 | 50 | 1014.3 |
| 20260502052214 | 57 | 334 | 7.0 | 15.0 | 0.00 | 0.00 | 0.00 | 51 | 1014.3 |
| 20260502051715 | 57 | 290 | 8.0 | 15.0 | 0.00 | 0.00 | 0.00 | 52 | 1014.3 |
| 20260502051214 | 56 | 320 | 11.0 | 14.0 | 0.00 | 0.00 | 0.00 | 52 | 1014.3 |
| 20260502050939 | 56 | 296 | 9.0 | 14.0 | 0.00 | 0.00 | 0.00 | 54 | 1014.4 |
| 20260502050215 | 56 | 283 | 7.0 | 14.0 | 0.00 | 0.00 | 0.00 | 55 | 1014.4 |
| 20260502045714 | 55 | 288 | 6.0 | 10.0 | 0.00 | 0.00 | 0.00 | 56 | 1014.4 |
| 20260502045214 | 55 | 285 | 7.0 | 10.0 | 0.00 | 0.00 | 0.00 | 56 | 1014.4 |
| 20260502044714 | 55 | 293 | 5.0 | 12.0 | 0.00 | 0.00 | 0.00 | 57 | 1014.5 |
| 20260502044214 | 55 | 309 | 7.0 | 12.0 | 0.00 | 0.00 | 0.00 | 58 | 1014.5 |
| 20260502043935 | 54 | 296 | 5.0 | 12.0 | 0.00 | 0.00 | 0.00 | 58 | 1014.6 |
| 20260502043433 | 54 | 289 | 5.0 | 12.0 | 0.00 | 0.00 | 0.00 | 59 | 1014.6 |
| 20260502042713 | 54 | 298 | 5.0 | 10.0 | 0.00 | 0.00 | 0.00 | 59 | 1014.7 |
| 20260502042213 | 54 | 271 | 6.0 | 10.0 | 0.00 | 0.00 | 0.00 | 59 | 1014.7 |
| 20260502041713 | 54 | 290 | 5.0 | 6.0 | 0.00 | 0.00 | 0.00 | 59 | 1014.6 |
| 20260502041431 | 54 | 275 | 3.0 | 9.0 | 0.00 | 0.00 | 0.00 | 59 | 1014.7 |
| 20260502040712 | 54 | 255 | 4.0 | 10.0 | 0.00 | 0.00 | 0.00 | 59 | 1014.6 |
| 20260502040434 | 54 | 282 | 4.0 | 10.0 | 0.00 | 0.00 | 0.00 | 59 | 1014.7 |
| 20260502035931 | 54 | 266 | 6.0 | 9.0 | 0.00 | 0.00 | 0.00 | 59 | 1014.7 |
| 20260502035212 | 54 | 262 | 4.0 | 11.0 | 0.00 | 0.00 | 0.00 | 58 | 1014.7 |
| 20260502034929 | 54 | 285 | 3.0 | 11.0 | 0.00 | 0.00 | 0.00 | 58 | 1014.8 |
| 20260502034213 | 54 | 265 | 2.0 | 10.0 | 0.00 | 0.00 | 0.00 | 58 | 1014.8 |
| 20260502033712 | 54 | 293 | 6.0 | 10.0 | 0.00 | 0.00 | 0.00 | 58 | 1014.8 |
| 20260502033212 | 54 | 268 | 5.0 | 7.0 | 0.00 | 0.00 | 0.00 | 58 | 1014.9 |
| 20260502032712 | 54 | 276 | 4.0 | 9.0 | 0.00 | 0.00 | 0.00 | 58 | 1014.9 |
| 20260502032212 | 54 | 302 | 5.0 | 11.0 | 0.00 | 0.00 | 0.00 | 58 | 1015.0 |
| 20260502031712 | 54 | 289 | 4.0 | 11.0 | 0.00 | 0.00 | 0.00 | 58 | 1015.0 |
| 20260502031211 | 54 | 288 | 7.0 | 13.0 | 0.00 | 0.00 | 0.00 | 58 | 1015.1 |
| 20260502030712 | 54 | 274 | 6.0 | 13.0 | 0.00 | 0.00 | 0.00 | 58 | 1015.0 |
| 20260502030211 | 54 | 283 | 5.0 | 10.0 | 0.00 | 0.00 | 0.00 | 57 | 1015.0 |
| 20260502025711 | 54 | 269 | 5.0 | 11.0 | 0.00 | 0.00 | 0.00 | 57 | 1015.1 |
| 20260502025211 | 54 | 289 | 6.0 | 11.0 | 0.00 | 0.00 | 0.00 | 57 | 1015.2 |
| 20260502024711 | 54 | 274 | 5.0 | 11.0 | 0.00 | 0.00 | 0.00 | 56 | 1015.2 |
| 20260502024211 | 54 | 282 | 7.0 | 11.0 | 0.00 | 0.00 | 0.00 | 56 | 1015.3 |
| 20260502023711 | 55 | 259 | 5.0 | 11.0 | 0.00 | 0.00 | 0.00 | 55 | 1015.3 |
| 20260502023211 | 55 | 299 | 5.0 | 12.0 | 0.00 | 0.00 | 0.00 | 54 | 1015.4 |
| 20260502022711 | 55 | 302 | 6.0 | 14.0 | 0.00 | 0.00 | 0.00 | 54 | 1015.3 |
| 20260502022432 | 55 | 281 | 7.0 | 14.0 | 0.00 | 0.00 | 0.00 | 53 | 1015.3 |
| 20260502021711 | 55 | 289 | 6.0 | 13.0 | 0.00 | 0.00 | 0.00 | 53 | 1015.4 |
| 20260502021211 | 55 | 278 | 6.0 | 13.0 | 0.00 | 0.00 | 0.00 | 53 | 1015.4 |
| 20260502020710 | 56 | 306 | 8.0 | 13.0 | 0.00 | 0.00 | 0.00 | 53 | 1015.5 |
| 20260502020213 | 56 | 310 | 5.0 | 13.0 | 0.00 | 0.00 | 0.00 | 52 | 1015.5 |
| 20260502015712 | 56 | 307 | 8.0 | 14.0 | 0.00 | 0.00 | 0.00 | 52 | 1015.5 |
| 20260502015212 | 56 | 261 | 10.0 | 14.0 | 0.00 | 0.00 | 0.00 | 52 | 1015.5 |
| 20260502014711 | 56 | 326 | 8.0 | 17.0 | 0.00 | 0.00 | 0.00 | 52 | 1015.6 |
| 20260502014211 | 56 | 275 | 7.0 | 17.0 | 0.00 | 0.00 | 0.00 | 51 | 1015.7 |
| 20260502013931 | 56 | 285 | 7.0 | 15.0 | 0.00 | 0.00 | 0.00 | 51 | 1015.7 |
| 20260502013211 | 56 | 306 | 6.0 | 14.0 | 0.00 | 0.00 | 0.00 | 50 | 1015.7 |
| 20260502012711 | 57 | 288 | 8.0 | 15.0 | 0.00 | 0.00 | 0.00 | 50 | 1015.7 |
| 20260502012433 | 57 | 286 | 6.0 | 16.0 | 0.00 | 0.00 | 0.00 | 50 | 1015.7 |
| 20260502011711 | 57 | 262 | 11.0 | 16.0 | 0.00 | 0.00 | 0.00 | 50 | 1015.7 |
| 20260502011430 | 57 | 262 | 8.0 | 16.0 | 0.00 | 0.00 | 0.00 | 50 | 1015.8 |
| 20260502010711 | 57 | 276 | 9.0 | 16.0 | 0.00 | 0.00 | 0.00 | 49 | 1015.8 |
| 20260502010432 | 57 | 254 | 4.0 | 16.0 | 0.00 | 0.00 | 0.00 | 49 | 1015.8 |
| 20260502005711 | 57 | 286 | 8.0 | 16.0 | 0.00 | 0.00 | 0.00 | 49 | 1015.8 |
| 20260502005210 | 58 | 309 | 7.0 | 18.0 | 0.00 | 0.00 | 0.00 | 49 | 1015.8 |
| 20260502004704 | 58 | 290 | 10.0 | 19.0 | 0.00 | 0.00 | 0.00 | 48 | 1015.9 |
| 20260502004204 | 58 | 296 | 9.0 | 19.0 | 0.00 | 0.00 | 0.00 | 48 | 1015.9 |
| 20260502003924 | 58 | 293 | 10.0 | 18.0 | 0.00 | 0.00 | 0.00 | 47 | 1016.0 |
| 20260502003203 | 58 | 290 | 10.0 | 18.0 | 0.00 | 0.00 | 0.00 | 47 | 1016.0 |
| 20260502002703 | 58 | 281 | 8.0 | 16.0 | 0.00 | 0.00 | 0.00 | 47 | 1016.0 |
| 20260502002654 | 58 | 271 | 8.0 | 14.0 | 0.00 | 0.00 | 0.00 | 47 | 1016.0 |
| 20260502001703 | 58 | 296 | 9.0 | 15.0 | 0.00 | 0.00 | 0.00 | 47 | 1016.1 |
| 20260502001422 | 58 | 295 | 10.0 | 15.0 | 0.00 | 0.00 | 0.00 | 47 | 1016.1 |
| 20260502000703 | 58 | 313 | 6.0 | 15.0 | 0.00 | 0.00 | 0.00 | 46 | 1016.2 |
| 20260502000204 | 59 | 281 | 8.0 | 14.0 | 0.00 | 0.00 | 0.00 | 46 | 1016.2 |
| 20260501235703 | 59 | 293 | 9.0 | 17.0 | 0.00 | 0.00 | 0.00 | 46 | 1016.2 |
| 20260501235421 | 59 | 285 | 12.0 | 17.0 | 0.00 | 0.00 | 0.00 | 45 | 1016.2 |
| 20260501234703 | 59 | 274 | 12.0 | 16.0 | 0.00 | 0.00 | 0.00 | 45 | 1016.3 |
| 20260501234203 | 59 | 296 | 6.0 | 15.0 | 0.00 | 0.00 | 0.00 | 45 | 1016.3 |
| 20260501233703 | 59 | 286 | 9.0 | 15.0 | 0.00 | 0.00 | 0.00 | 45 | 1016.3 |
| 20260501233204 | 59 | 289 | 9.0 | 21.0 | 0.00 | 0.00 | 0.00 | 44 | 1016.3 |
| 20260501233156 | 59 | 258 | 9.0 | 21.0 | 0.00 | 0.00 | 0.00 | 44 | 1016.4 |
| 20260501232204 | 59 | 295 | 12.0 | 20.0 | 0.00 | 0.00 | 0.00 | 44 | 1016.3 |
| 20260501231703 | 60 | 276 | 10.0 | 26.0 | 0.00 | 0.00 | 0.00 | 44 | 1016.4 |
| 20260501231203 | 59 | 282 | 13.0 | 26.0 | 0.00 | 0.00 | 0.00 | 45 | 1016.3 |
| 20260501230704 | 59 | 285 | 7.0 | 14.0 | 0.00 | 0.00 | 0.00 | 45 | 1016.4 |
| 20260501230203 | 59 | 275 | 9.0 | 15.0 | 0.00 | 0.00 | 0.00 | 44 | 1016.4 |
| 20260501225704 | 60 | 272 | 8.0 | 15.0 | 0.00 | 0.00 | 0.00 | 44 | 1016.5 |
| 20260501225203 | 60 | 266 | 9.0 | 18.0 | 0.00 | 0.00 | 0.00 | 43 | 1016.6 |
| 20260501224704 | 60 | 275 | 10.0 | 18.0 | 0.00 | 0.00 | 0.00 | 43 | 1016.5 |
| 20260501224205 | 60 | 254 | 14.0 | 18.0 | 0.00 | 0.00 | 0.00 | 43 | 1016.5 |
| 20260501223705 | 60 | 293 | 6.0 | 14.0 | 0.00 | 0.00 | 0.00 | 42 | 1016.7 |
| 20260501223205 | 60 | 266 | 8.0 | 20.0 | 0.00 | 0.00 | 0.00 | 42 | 1016.7 |
| 20260501222704 | 61 | 321 | 12.0 | 20.0 | 0.00 | 0.00 | 0.00 | 42 | 1016.7 |
| 20260501222202 | 61 | 327 | 12.0 | 18.0 | 0.00 | 0.00 | 0.00 | 42 | 1016.7 |
| 20260501221702 | 61 | 272 | 7.0 | 18.0 | 0.00 | 0.00 | 0.00 | 42 | 1016.8 |
| 20260501221202 | 61 | 285 | 9.0 | 22.0 | 0.00 | 0.00 | 0.00 | 41 | 1016.8 |
| 20260501220924 | 61 | 283 | 13.0 | 22.0 | 0.00 | 0.00 | 0.00 | 41 | 1016.6 |
| 20260501220202 | 61 | 282 | 13.0 | 22.0 | 0.00 | 0.00 | 0.00 | 40 | 1016.8 |
| 20260501215923 | 62 | 272 | 13.0 | 22.0 | 0.00 | 0.00 | 0.00 | 40 | 1016.7 |
| 20260501215202 | 62 | 286 | 10.0 | 19.0 | 0.00 | 0.00 | 0.00 | 40 | 1016.8 |
| 20260501214702 | 62 | 281 | 9.0 | 16.0 | 0.00 | 0.00 | 0.00 | 39 | 1016.8 |
| 20260501214201 | 62 | 299 | 8.0 | 16.0 | 0.00 | 0.00 | 0.00 | 39 | 1016.9 |
| 20260501213702 | 62 | 300 | 11.0 | 19.0 | 0.00 | 0.00 | 0.00 | 39 | 1016.9 |
| 20260501213202 | 62 | 0 | 11.0 | 19.0 | 0.00 | 0.00 | 0.00 | 39 | 1016.9 |
| 20260501212702 | 63 | 274 | 10.0 | 26.0 | 0.00 | 0.00 | 0.00 | 38 | 1017.0 |
| 20260501212202 | 63 | 265 | 15.0 | 26.0 | 0.00 | 0.00 | 0.00 | 37 | 1017.0 |
| 20260501211702 | 63 | 268 | 12.0 | 24.0 | 0.00 | 0.00 | 0.00 | 37 | 1017.1 |
| 20260501211202 | 63 | 290 | 13.0 | 24.0 | 0.00 | 0.00 | 0.00 | 37 | 1017.0 |
| 20260501210701 | 64 | 286 | 8.0 | 24.0 | 0.00 | 0.00 | 0.00 | 36 | 1017.0 |
| 20260501210202 | 64 | 302 | 10.0 | 18.0 | 0.00 | 0.00 | 0.00 | 36 | 1017.0 |
| 20260501205702 | 64 | 289 | 11.0 | 22.0 | 0.00 | 0.00 | 0.00 | 36 | 1017.0 |
| 20260501205420 | 64 | 268 | 9.0 | 34.0 | 0.00 | 0.00 | 0.00 | 36 | 1017.0 |
| 20260501204921 | 64 | 276 | 11.0 | 34.0 | 0.00 | 0.00 | 0.00 | 36 | 1017.0 |
| 20260501204202 | 64 | 283 | 10.0 | 15.0 | 0.00 | 0.00 | 0.00 | 39 | 1016.9 |
| 20260501203702 | 63 | 323 | 6.0 | 9.0 | 0.00 | 0.00 | 0.00 | 42 | 1017.1 |
| 20260501203202 | 64 | 271 | 6.0 | 7.0 | 0.00 | 0.00 | 0.00 | 42 | 1017.0 |
| 20260501202925 | 64 | 293 | 4.0 | 7.0 | 0.00 | 0.00 | 0.00 | 41 | 1016.9 |
| 20260501202202 | 64 | 312 | 4.0 | 7.0 | 0.00 | 0.00 | 0.00 | 41 | 1016.9 |
| 20260501201701 | 65 | 283 | 3.0 | 7.0 | 0.00 | 0.00 | 0.00 | 40 | 1017.0 |
| 20260501201202 | 65 | 282 | 4.0 | 7.0 | 0.00 | 0.00 | 0.00 | 40 | 1016.9 |
| 20260501200702 | 65 | 292 | 4.0 | 7.0 | 0.00 | 0.00 | 0.00 | 40 | 1016.9 |
| 20260501200202 | 65 | 293 | 5.0 | 9.0 | 0.00 | 0.00 | 0.00 | 40 | 1017.0 |
| 20260501195702 | 66 | 319 | 6.0 | 9.0 | 0.00 | 0.00 | 0.00 | 39 | 1017.1 |
| 20260501195204 | 66 | 307 | 6.0 | 9.0 | 0.00 | 0.00 | 0.00 | 38 | 1017.1 |
| 20260501194649 | 66 | 296 | 8.0 | 9.0 | 0.00 | 0.00 | 0.00 | 38 | 1017.1 |